Location: Melbourne
(37.8666°S, 145.1333°E)
Time: 22:59:50
(UTC+11:00)

Iridium 21 - Visible Passes

Search period start: 24 October 2014 00:00
Search period end: 03 November 2014 00:00
Orbit: 776 x 779 km, 86.4° (Epoch: 23 October)

Date Brightness Start Highest point End Pass type
(mag) Time Alt. Az. Time Alt. Az. Time Alt. Az.
24 Oct 6.0 04:55:28 10° N 05:00:38 65° E 05:05:52 10° S visible
25 Oct 7.1 04:22:35 10° NNE 04:27:15 34° E 04:31:59 10° SSE visible
26 Oct 8.0 03:50:28 10° ENE 03:54:00 19° E 03:57:33 10° SE visible
26 Oct 5.9 05:29:16 10° NNW 05:34:17 46° W 05:39:21 10° S visible
27 Oct 5.5 04:55:28 10° N 05:00:42 87° W 05:06:01 10° S visible
28 Oct 6.4 04:22:13 10° NNE 04:27:15 50° E 04:32:20 10° SSE visible
29 Oct 7.5 03:49:35 10° NE 03:53:55 27° E 03:58:16 10° SSE visible
29 Oct 6.4 05:29:50 10° NW 05:34:28 31° W 05:39:09 10° SSW visible
30 Oct 8.2 03:17:58 10° ENE 03:20:42 14° ESE 03:23:27 10° SE visible
30 Oct 5.6 04:56:11 13° NNW 05:00:48 59° W 05:06:02 10° S visible
31 Oct 5.7 04:23:10 17° N 04:27:16 74° E 04:32:33 10° S visible
01 Nov 6.8 03:50:07 16° NNE 03:53:52 39° E 03:58:44 10° SSE visible
01 Nov 6.8 05:30:41 10° NW 05:34:41 22° WSW 05:38:44 10° SSW visible
02 Nov 7.7 03:17:01 11° NE 03:20:34 21° E 03:24:27 10° SSE visible
02 Nov 6.0 04:57:31 18° NW 05:00:57 40° W 05:05:55 10° SSW visible
